Terug naar catalogus

ONEWEB-0649

ActiefCommunicatiePO
NORAD 55812·PAYLOAD·🇬🇧 United Kingdom

Gelanceerd Mar 9, 2023 vanaf Cape Canaveral Space Force Station

Loading…

Volgende Passages (komende 24 uur)

TLE

VersSource: CelesTrak SupGP

Epoch: Sep 14, 2026, 15:30 UTC

1 55812C 23029S   26257.64597639 -.00000363  00000+0 -90674-3 0  2577
2 55812  87.9106 287.1505 0002019  86.9050  26.6086 13.19724384    13

Volg ONEWEB-0649 in realtime met AllMySat

Download on the App Store